Location: Montjuich
(41.3670°N, 2.1670°E)
Time: 20:46:34
(UTC+02:00)

ISS - Visible Passes

Search period start: 25 September 2017 00:00
Search period end: 05 October 2017 00:00
Orbit: 401 x 407 km, 51.6° (Epoch: 26 September)

Date Brightness Start Highest point End Pass type
(mag) Time Alt. Az. Time Alt. Az. Time Alt. Az.
25 Sep -3.9 21:16:24 10° SW 21:19:29 63° SSE 21:19:29 63° SSE visible
26 Sep -3.0 20:24:26 10° SSW 20:27:23 32° SE 20:29:51 13° ENE visible
26 Sep -1.4 22:00:50 10° W 22:02:32 23° WNW 22:02:32 23° WNW visible
27 Sep -3.2 21:08:10 10° WSW 21:11:23 54° NNW 21:12:42 30° NNE visible
28 Sep -3.9 20:15:44 10° SW 20:19:00 81° SE 20:22:17 10° NE visible
28 Sep -1.3 21:53:13 10° WNW 21:55:20 20° NNW 21:55:20 20° NNW visible
29 Sep -2.0 21:00:19 10° W 21:03:13 29° NNW 21:05:12 16° NNE visible
30 Sep -2.8 20:07:34 10° WSW 20:10:42 45° NNW 20:13:53 10° NE visible
30 Sep -1.1 21:45:42 10° NW 21:47:36 16° NNW 21:47:36 16° NNW visible
01 Oct -1.5 20:52:41 10° WNW 20:55:08 19° NNW 20:57:16 12° NNE visible
02 Oct -1.9 19:59:42 10° W 20:02:30 25° NNW 20:05:18 10° NE visible
02 Oct -1.1 21:38:02 10° NW 21:39:31 14° N 21:39:31 14° N visible
03 Oct -1.3 20:45:05 10° NW 20:47:05 15° N 20:49:04 10° NNE visible
04 Oct -1.1 21:29:55 10° NNW 21:31:15 14° N 21:31:15 14° N visible
